Starlink 2560

decayed
NORAD ID: 48402 Int'l Des: 2021-038 Owner: SPXS Country: US Constellation: starlink
LEOCIRCULAR
グループ

Starlink 2560について

説明を読み込み中...

高度履歴

Altitude vs Time

uPlot chart will show altitude changes over time

軌道要素

1 48402U 21038BB 24243.08376147 .15638714 12277-4 18493-2 0 9998
2 48402 53.0245 239.9184 0001800 341.9173 137.0566 16.35831657185111
Epoch: Aug 30, 2024 • Age: 11157 hours

現在のステータス

Position data unavailable
打ち上げ日 May 4, 2021
運用期間 4.5 years
落下予定日 Aug 30, 2024
タイプ internet

技術仕様

分類 Payload
質量 260.00 kg
乾燥質量 248.00 kg
総質量 260.00 kg
長さ 0.20 m
直径 2.80 m
スパン 9.00 m
形状 Box + pan
製造者 SPXS
バスタイプ Starlink
フェーズステータス Unknown Transfer Status
所有者/国 SPXS/US

大規模コンステレーション

Loading constellations...